Theta_e
312 312 311 311 311 311 310 310 310 310 310 310 311 313 313 313 313 315 316 316 315 315 315 315 315 316 309 302 298 308 333 333 331 320 314 309 304 303 301 307 311 308 311 314 314 313 312
313 313 313 313 313 312 312 312 312 311 311 311 310 309 311 312 313 313 315 315 316 316 315 315 315 316 305 290 304 308 309 308 314 317 314 310 306 307 301 303 304 309 311 312 313 312 312
312 313 313 313 314 314 313 313 313 313 312 312 311 311 309 310 311 312 313 313 313 314 314 314 316 312 303 298 306 308 304 303 306 314 310 314 312 306 303 301 305 305 301 305 308 309 308
311 312 311 312 312 312 312 311 312 312 313 313 313 312 311 310 309 310 311 313 313 313 313 313 315 309 298 308 308 303 303 301 305 308 310 313 310 304 301 303 303 300 298 295 303 306 308
310 310 310 310 310 310 310 311 311 312 312 313 313 313 312 312 311 309 310 311 311 312 312 312 308 304 294 309 303 305 306 302 305 306 307 311 309 303 302 298 294 296 293 295 299 306 306
309 309 309 309 309 309 310 310 311 311 311 311 312 312 312 312 312 311 310 310 310 310 308 310 309 299 301 300 305 306 305 305 303 305 303 304 305 301 297 294 290 293 292 296 297 303 304
308 308 308 308 309 309 309 310 310 310 311 311 311 311 311 312 312 311 306 299 297 300 302 298 298 297 303 306 310 307 308 303 304 301 295 300 297 293 299 300 299 299 296 296 300 305 303
307 308 307 307 307 308 309 309 309 310 310 310 310 310 310 311 312 311 303 295 296 299 292 301 303 302 304 305 300 305 309 301 298 294 298 295 291 298 300 299 297 297 296 296 301 304 301
307 308 308 308 308 308 309 309 309 310 311 311 311 311 311 311 311 302 297 299 304 302 293 297 301 301 302 304 299 301 306 303 297 294 295 292 296 300 298 299 296 296 295 297 297 301 302
308 308 308 308 308 308 308 308 308 309 310 310 310 310 310 311 301 297 295 303 302 305 286 291 296 300 303 303 299 306 308 304 299 293 295 294 299 299 297 295 299 294 301 301 300 297 291
308 308 308 308 308 308 308 308 308 309 310 310 310 310 310 310 299 295 297 299 301 300 275 293 294 306 303 299 303 303 309 304 297 296 295 292 295 295 294 295 299 297 302 301 301 298 293
307 307 307 308 307 307 308 308 308 309 310 310 309 309 310 305 302 302 304 302 297 284 276 289 295 293 295 298 299 306 303 305 304 298 297 295 300 298 297 300 300 303 300 299 299 296 289
307 307 307 308 307 308 308 308 309 309 309 310 309 309 308 306 296 301 302 295 284 279 291 288 289 291 292 294 295 298 298 296 293 290 290 295 295 299 300 296 299 300 294 287 284 287 287
307 307 308 308 308 308 308 308 308 308 309 309 308 308 305 305 302 302 297 289 279 285 286 292 291 290 290 291 292 296 296 293 296 295 291 289 288 296 300 297 294 295 295 288 282 283 288
306 306 307 307 308 308 308 308 308 308 308 307 306 298 297 300 304 299 294 282 280 285 289 288 289 286 286 289 290 292 294 294 296 297 289 289 290 300 301 301 298 293 290 296 290 292 288
305 306 307 308 308 309 309 309 309 308 308 306 300 294 295 301 302 300 287 283 285 290 290 290 283 287 282 285 286 288 290 297 297 299 298 293 288 298 299 301 300 296 298 290 288 284 282
305 306 307 308 308 308 309 309 309 309 307 305 295 289 297 301 303 293 280 282 287 292 293 288 285 284 285 285 287 286 289 296 298 299 300 296 291 294 297 294 293 292 293 293 294 291 286
305 306 308 308 308 308 308 309 309 308 305 300 291 283 301 304 290 289 284 287 292 290 293 291 290 289 287 288 286 287 288 293 298 299 294 297 290 288 292 297 300 297 293 294 291 288 291
306 306 308 308 308 308 308 308 308 307 305 294 289 288 299 302 283 284 288 288 290 289 290 289 288 291 292 288 284 289 292 297 297 296 295 296 292 285 288 292 297 294 296 297 295 293 290
306 307 307 308 308 307 308 308 308 307 305 294 289 282 291 295 291 287 286 286 285 292 289 290 288 290 288 287 290 286 288 293 296 296 301 297 292 290 287 292 295 293 295 297 297 291 291
306 306 307 307 307 307 308 308 308 307 305 294 288 284 291 282 284 285 284 286 284 284 290 290 286 286 287 284 287 286 289 291 295 298 294 290 288 293 294 296 297 297 296 297 298 297 295
307 306 306 307 307 308 308 308 308 307 304 292 282 288 292 286 287 285 285 284 286 287 288 287 286 290 290 286 288 287 289 290 289 294 290 290 286 293 292 296 296 294 297 298 300 299 297
307 307 307 307 307 307 307 308 308 307 303 293 293 293 291 287 283 279 282 287 288 289 291 292 291 289 287 290 294 296 295 295 293 290 288 287 288 288 288 294 294 290 295 297 300 302 299
306 306 307 307 307 307 307 307 308 308 303 297 297 294 288 282 283 284 287 289 289 290 288 291 291 290 294 297 298 296 294 294 293 292 293 287 287 287 288 290 284 295 301 302 301 302 304
305 306 306 306 306 307 307 307 308 308 307 296 299 294 289 283 285 286 288 289 289 290 289 289 291 293 296 293 288 286 287 289 290 293 292 292 288 286 286 288 291 295 300 299 298 297 303
305 305 305 306 306 305 306 307 308 308 307 296 297 299 293 287 282 290 287 288 286 286 286 289 294 295 292 289 285 281 280 285 284 289 298 292 292 290 289 284 284 293 303 305 304 295 303
305 304 305 305 304 305 306 306 307 308 307 298 295 301 295 288 291 290 288 287 291 289 286 290 290 290 292 285 276 281 283 288 282 284 287 290 290 287 287 287 291 299 304 306 294 296 303
304 304 305 304 304 305 305 306 307 307 307 302 295 300 298 293 293 296 296 292 291 291 285 290 290 291 290 283 285 286 285 287 286 288 286 289 290 289 290 288 286 304 303 297 300 302 306
304 304 304 305 305 305 305 306 307 307 308 306 297 299 302 296 293 298 298 299 298 296 293 292 290 289 291 286 288 289 287 287 286 283 292 286 289 290 292 291 300 303 301 303 308 304 306
Wind_Speed
13 13 13 13 13 13 14 14 14 15 16 16 16 17 17 17 17 15 14 15 15 15 15 14 13 12 7 4 12 11 11 4 3 12 15 12 8 8 13 12 9 11 21 21 21 20 19
16 15 14 14 13 13 13 13 14 14 14 14 16 16 17 17 17 16 15 13 13 13 14 14 12 10 3 13 10 11 17 13 11 5 10 11 11 14 2 11 17 14 14 19 19 21 17
17 17 17 17 16 16 15 16 17 16 15 15 15 16 17 18 19 19 17 16 16 14 15 15 13 7 10 18 8 7 6 5 5 14 11 15 16 2 5 14 15 10 12 12 17 17 18
17 17 18 18 17 17 17 18 18 19 17 16 15 14 16 17 19 21 22 21 20 20 19 16 13 7 12 9 19 21 28 18 15 9 8 7 8 6 6 5 9 6 5 10 9 14 17
18 18 17 17 17 17 17 18 18 18 19 18 17 17 16 18 18 20 21 23 27 25 21 16 9 6 12 8 11 21 19 14 20 12 10 9 6 8 1 13 8 4 14 18 19 12 14
20 20 20 19 18 18 19 19 18 18 18 19 18 17 17 18 19 19 19 24 30 19 10 8 8 2 8 10 8 8 12 20 9 3 7 10 7 8 6 5 13 12 8 7 18 17 8
19 19 20 20 19 20 21 21 20 21 20 19 18 18 19 18 17 16 12 8 6 4 4 12 13 10 2 18 7 7 8 13 9 4 14 10 10 16 23 26 17 11 6 11 18 17 6
21 20 21 20 21 20 20 20 21 22 22 22 22 20 19 18 18 15 5 2 5 2 13 17 24 26 25 7 7 10 13 9 12 19 11 7 28 22 19 12 13 13 13 20 20 18 5
20 20 20 20 20 19 20 19 20 20 20 20 20 21 21 18 13 8 4 8 6 7 8 12 20 20 20 14 13 22 8 7 7 12 22 25 12 21 20 15 15 16 18 20 20 14 9
21 21 20 19 18 18 20 21 21 22 21 20 19 19 18 18 7 4 6 5 7 6 6 9 10 11 18 9 15 25 13 7 9 23 22 17 19 19 19 19 16 18 21 19 20 11 8
22 22 20 19 18 18 19 22 22 23 21 20 19 20 17 10 6 4 7 11 16 1 6 4 4 6 9 28 13 16 23 16 20 15 13 11 21 24 22 26 24 22 14 15 14 13 3
23 22 21 20 20 19 20 20 22 22 21 20 19 19 16 7 3 10 11 15 3 2 11 7 9 13 1 19 15 2 17 8 14 13 15 19 8 24 26 17 21 22 6 8 10 6 8
23 22 22 21 20 21 21 21 22 22 21 20 20 19 12 4 5 3 8 6 2 7 8 3 15 21 21 9 16 9 8 21 13 15 18 14 21 14 14 22 17 13 9 5 4 6 9
23 22 21 21 22 22 22 22 21 21 21 20 20 17 7 7 4 4 3 1 8 6 14 21 20 18 6 21 10 14 9 18 24 15 13 15 13 26 22 21 20 24 14 7 8 4 4
23 22 23 24 23 23 23 22 21 21 20 20 17 3 3 5 8 3 2 6 4 6 9 16 17 9 11 22 12 10 24 15 25 24 11 17 19 6 24 18 20 11 19 12 3 2 2
23 23 24 24 24 25 25 24 21 19 19 16 5 3 5 4 6 3 2 7 4 13 13 17 8 7 17 16 12 15 6 7 17 23 8 4 6 17 14 17 22 21 5 9 0 8 7
22 23 24 23 24 24 25 24 21 17 15 13 3 4 4 3 4 2 3 5 5 14 8 9 11 12 16 17 12 14 9 11 22 8 19 11 4 6 16 20 27 8 19 8 7 7 9
22 23 23 24 24 24 25 24 21 14 13 4 2 3 1 2 2 0 1 4 5 10 13 12 8 8 9 13 13 8 11 11 19 20 9 23 5 10 18 4 19 18 10 21 12 8 3
22 23 23 23 23 24 24 24 20 13 8 2 4 3 4 4 2 1 3 10 11 14 14 5 6 9 10 11 7 7 11 12 17 19 12 7 17 4 9 1 5 22 20 13 7 5 9
21 21 22 23 23 23 23 23 21 13 6 3 3 4 3 3 2 3 5 8 3 8 11 9 9 8 11 11 10 8 13 12 21 19 13 7 5 28 17 12 8 8 19 14 14 7 6
21 22 22 22 22 23 23 23 22 15 4 3 1 3 2 4 4 7 4 6 8 8 8 8 5 8 10 8 13 16 17 19 15 6 10 7 9 19 29 18 4 6 18 21 17 14 15
20 21 22 22 22 22 23 23 23 12 2 3 1 3 4 5 6 5 5 4 11 8 4 8 5 12 10 8 16 15 11 5 7 6 12 7 8 6 21 29 26 16 9 24 21 10 9
19 21 21 21 21 22 23 22 21 16 3 2 3 3 2 6 4 2 3 8 6 10 11 4 10 7 9 14 9 9 7 6 8 14 8 4 5 7 21 20 20 20 23 10 16 19 13
19 21 21 21 21 21 21 21 20 19 6 1 1 0 1 5 3 4 12 13 14 13 11 13 8 5 4 16 6 4 8 12 11 17 14 7 2 4 7 6 11 13 12 14 15 18 17
22 22 22 22 22 20 20 20 18 17 3 2 2 1 1 5 4 13 12 11 13 13 10 10 12 8 6 6 2 5 4 4 6 18 18 18 7 5 3 14 6 11 9 13 9 10 12
24 23 22 22 22 22 20 20 18 16 10 1 3 3 1 4 5 6 6 8 6 5 6 8 14 8 4 4 3 3 3 5 4 13 11 17 15 4 4 7 14 6 6 9 8 10 10
24 24 24 23 22 22 20 20 20 15 12 2 4 5 2 5 6 3 7 6 4 4 5 6 8 9 3 2 2 3 2 3 2 6 8 2 6 12 5 5 6 6 7 6 14 11 6
24 23 23 22 22 21 22 20 19 16 10 1 5 5 4 4 12 8 5 8 8 4 3 4 4 2 3 3 1 2 2 3 3 3 5 5 5 2 4 5 2 19 6 5 6 5 10
24 24 24 23 22 21 22 20 18 16 11 6 3 3 3 5 10 14 18 21 16 20 4 3 3 3 2 2 3 3 2 1 5 1 5 2 4 6 5 3 12 6 11 8 9 6 4
Wind_Direction
6 4 2 1 358 353 348 343 338 334 330 326 325 328 323 318 318 313 302 292 292 295 298 301 313 329 354 216 231 254 283 18 70 164 199 201 176 204 217 234 261 245 250 253 257 264 267
9 3 357 350 341 337 333 330 329 327 326 326 324 318 317 320 313 306 298 293 276 273 282 293 302 320 191 238 259 255 266 274 254 172 205 189 215 212 318 226 237 248 242 255 264 266 271
9 5 0 356 351 353 351 346 338 329 321 318 317 318 316 313 313 314 307 299 294 286 288 288 293 282 244 239 246 249 308 228 238 220 224 214 220 185 194 255 271 254 272 278 268 267 269
6 3 360 356 356 354 351 345 339 335 331 324 312 306 307 312 312 312 313 309 299 293 290 286 281 269 254 247 237 256 262 273 249 242 246 229 194 218 204 287 300 299 289 265 260 269 266
1 358 357 354 352 350 347 340 336 334 332 328 325 317 303 307 310 311 307 302 296 286 278 276 264 205 269 274 217 231 218 217 241 225 231 240 158 192 220 226 270 225 255 263 271 253 266
356 353 350 348 348 347 343 338 335 332 330 328 323 319 316 303 307 312 308 301 286 280 262 225 233 270 255 232 233 231 193 215 218 189 209 209 190 191 205 167 218 224 240 244 254 251 251
351 350 348 345 343 344 340 337 336 335 331 326 322 319 314 313 303 310 328 339 5 89 271 205 197 213 290 211 319 220 159 167 181 216 204 188 196 210 213 218 228 243 250 252 257 262 249
346 344 344 343 342 340 335 336 335 331 329 327 323 320 318 311 306 302 311 245 226 250 292 254 257 237 266 318 304 277 143 149 180 199 173 201 220 212 226 220 220 224 247 255 271 272 267
344 342 342 340 337 334 333 337 331 327 324 322 318 316 316 316 309 313 213 238 246 296 264 269 231 230 222 238 235 260 207 189 167 192 201 207 208 208 208 218 214 223 227 244 251 275 267
340 339 339 338 333 330 336 334 330 325 323 318 313 312 310 319 320 287 256 273 314 258 285 270 210 237 191 216 255 217 210 203 207 198 208 233 214 206 212 219 213 233 223 237 248 258 257
342 342 341 338 335 334 333 330 327 325 320 315 310 310 307 299 285 297 271 324 319 104 298 226 216 186 176 188 128 206 200 194 219 173 176 205 186 214 221 215 215 237 221 237 251 245 236
347 346 343 340 338 336 330 328 326 324 322 318 313 309 308 282 232 248 292 296 306 128 248 296 62 358 149 213 232 89 179 175 193 228 215 210 194 208 222 226 214 236 250 251 261 239 241
348 344 343 340 340 334 330 329 325 323 322 316 311 305 297 249 248 300 333 334 213 207 317 49 353 341 323 183 230 258 189 187 183 191 214 210 216 225 197 212 224 206 191 245 271 208 222
350 349 344 342 339 332 328 325 322 321 320 315 308 295 249 225 234 272 334 67 223 246 252 309 350 338 34 17 337 221 253 197 209 195 178 204 215 207 208 203 206 221 198 190 197 198 199
351 347 344 342 335 331 328 322 319 319 321 323 316 284 258 238 210 137 245 210 209 355 323 338 350 355 353 353 339 331 220 220 201 198 166 195 227 230 202 205 185 204 218 201 159 225 82
350 347 345 340 337 335 333 329 319 318 323 330 322 317 278 250 140 100 113 236 300 327 316 332 349 354 331 336 323 356 301 278 230 212 215 224 196 231 216 196 224 218 155 176 241 201 224
349 347 344 342 340 341 341 338 336 327 326 327 337 354 278 357 93 107 193 230 259 277 329 330 314 315 311 321 309 331 280 26 22 247 211 249 72 312 204 203 202 177 217 222 175 176 188
349 346 343 344 344 346 344 343 343 350 343 28 340 328 210 16 95 292 286 240 312 268 310 293 285 278 297 336 302 294 261 318 359 346 272 201 145 241 243 293 206 209 183 209 219 218 206
349 345 343 344 344 345 345 346 345 346 9 358 317 280 330 102 202 122 310 278 260 279 277 255 260 279 286 294 279 303 283 342 332 348 352 319 214 266 326 179 235 201 206 201 177 116 195
349 344 341 341 343 344 343 344 345 342 353 65 339 328 322 56 145 177 248 266 267 293 295 268 287 287 279 292 256 253 275 305 331 322 346 317 248 209 215 222 173 191 205 188 185 185 169
348 342 341 340 342 342 341 341 342 339 349 77 331 284 332 316 313 303 276 288 294 303 252 273 277 264 253 280 289 253 259 297 328 292 2 3 252 210 220 243 246 205 206 198 197 192 190
346 341 340 339 341 340 338 340 343 345 57 55 124 336 342 286 288 306 305 313 317 309 301 297 298 329 320 250 261 282 258 268 283 301 349 346 292 265 217 229 237 250 262 206 207 190 142
345 336 335 336 339 339 338 338 341 343 110 298 327 330 252 274 292 15 251 333 290 301 289 269 309 318 294 291 291 289 186 196 235 278 303 289 330 335 219 214 233 240 238 224 202 192 147
341 334 333 334 337 337 335 336 340 346 179 214 283 233 309 289 324 282 311 302 323 321 299 304 310 278 266 304 250 241 211 232 238 254 226 232 308 269 254 163 220 237 197 219 208 194 181
334 333 332 333 338 340 335 332 338 347 356 184 192 173 251 277 253 296 329 326 313 305 287 285 296 287 270 279 275 275 250 208 263 257 239 203 190 269 232 192 254 228 202 191 172 218 184
329 331 330 332 336 339 335 332 329 336 336 151 224 174 180 283 257 302 307 303 297 309 317 284 306 278 229 182 171 244 262 118 281 313 290 180 203 200 327 153 215 214 177 179 142 217 186
326 327 329 333 334 334 330 330 324 322 327 181 263 190 192 267 267 232 293 277 256 310 270 302 338 334 352 199 135 249 159 81 136 300 348 200 184 219 236 286 290 237 197 91 177 221 170
325 325 325 327 327 327 328 326 322 317 315 316 257 194 219 257 284 259 219 254 300 245 246 289 327 344 311 344 143 311 210 145 162 229 315 283 318 221 188 229 97 348 301 104 278 279 183
325 325 325 322 318 323 325 323 318 313 301 316 259 261 228 245 276 282 269 262 246 235 222 267 229 218 232 290 2 289 264 161 162 268 141 303 18 309 322 350 309 293 52 339 352 296 233